sat.trackr.live / text

‹ back to catalog

STARLINK-37969

NORAD 69710 · 2026-147G

PAYLOAD ACTIVE UNKNOWN

§ Identity

Operator
Country
US
Launch date
2026-06-28
Launch site
AFWTR
Launch vehicle
Mass (kg)
RCS (m²)

Purposes: comms

External: N2YO · Heavens-Above · Gunter

§ Orbital elements

Epoch: 2026-09-20T04:31:17.658912Z

Period
93.91 min
Inclination
97.2843°
Eccentricity
0.0001380
Mean motion
15.33446057 rev/d
Perigee alt
464.6 km
Apogee alt
466.5 km
Semi-major
6,843.7 km
B*
1.7811e-4
RAAN
299.5145°
Arg perigee
91.9885°
Mean anomaly
268.1516°
Rev number
1,418

§ Raw data

STARLINK-379691 69710U 26147G   26263.18839883  .00005679  00000+0  17811-3 0  99972 69710  97.2843 299.5145 0001380  91.9885 268.1516 15.33446057 14186

JSON: /api/v1/satellites/69710 · /tle

For live sub-satellite position, see the globe view (requires WebGL).

§ Visibility from observer

Set your observer location to see the next 7 days of passes ≥ 10°. The values pass through the URL so the page stays shareable.

No JS? Fill the form by hand. The geolocation button needs JavaScript.